Location: Ariel
(45.9570°N, 122.5700°W)
Time: 01:53:05
(UTC-07:00)

Vanguard 3 - All Passes

Search period start: 25 August 2019 00:00
Search period end: 04 September 2019 00:00
Orbit: 508 x 3263 km, 33.3° (Epoch: 24 August)

Date Brightness Start Highest point End Pass type
(mag) Time Alt. Az. Time Alt. Az. Time Alt. Az.
25 Aug - 16:19:10 10° SSW 16:26:21 20° SSE 16:31:27 10° ESE daylight
25 Aug - 18:31:51 10° SW 18:38:00 25° S 18:42:13 10° SE daylight
25 Aug - 20:45:50 10° SW 20:48:40 15° SSW 20:51:04 10° SSE visible
26 Aug - 15:04:48 10° SSW 15:12:02 17° SSE 15:17:28 10° ESE daylight
26 Aug - 17:16:23 10° SW 17:24:14 26° S 17:29:23 10° ESE daylight
26 Aug - 19:30:16 10° WSW 19:35:25 22° SSW 19:39:08 10° SE daylight
27 Aug - 13:51:54 10° S 13:57:24 13° SSE 14:02:00 10° SE daylight
27 Aug - 16:00:57 10° SW 16:10:07 25° SSE 16:16:12 10° ESE daylight
27 Aug - 18:14:36 10° WSW 18:21:55 28° S 18:26:41 10° SE daylight
27 Aug - 20:29:19 10° WSW 20:32:35 15° SSW 20:35:14 10° S visible
28 Aug - 14:45:56 10° SSW 14:55:37 22° SSE 15:02:27 10° ESE daylight
28 Aug - 16:58:44 10° SW 17:08:03 31° S 17:13:54 10° ESE daylight
28 Aug - 19:13:20 10° WSW 19:19:20 24° SSW 19:23:29 10° SE daylight
29 Aug - 13:31:56 10° S 13:40:49 18° SSE 13:47:42 10° ESE daylight
29 Aug - 15:42:50 10° SW 15:53:46 30° S 16:00:45 10° ESE daylight
29 Aug - 17:57:17 10° WSW 18:05:46 32° S 18:11:05 10° SE daylight
29 Aug - 20:12:40 10° WSW 20:16:25 16° SSW 20:19:23 10° S daylight
30 Aug - 12:20:30 10° SSE 12:25:50 12° SE 12:30:31 10° SE daylight
30 Aug - 14:27:18 10° SSW 14:39:06 27° SSE 14:47:06 10° ESE daylight
30 Aug - 16:41:01 10° WSW 16:51:45 35° S 16:58:19 10° ESE daylight
30 Aug - 18:56:17 10° WSW 19:03:10 26° SSW 19:07:47 10° SE daylight
31 Aug - 13:12:40 10° SSW 13:24:06 22° SSE 13:32:37 10° ESE daylight
31 Aug - 15:24:45 10° SW 15:37:18 35° S 15:45:09 10° ESE daylight
31 Aug - 17:39:52 10° WSW 17:49:31 34° S 17:55:25 10° SE daylight
31 Aug - 19:55:56 10° WSW 20:00:11 16° SSW 20:03:29 10° S daylight
01 Sep - 11:59:46 10° S 12:08:56 16° SE 12:16:35 10° ESE daylight
01 Sep - 14:08:51 10° SW 14:22:26 32° SSE 14:31:31 10° ESE daylight
01 Sep - 16:23:16 10° WSW 16:35:22 39° S 16:42:38 10° ESE daylight
01 Sep - 18:39:08 10° WSW 18:46:55 27° SSW 18:52:01 10° SSE daylight
02 Sep - 12:53:46 10° SSW 13:07:14 27° SSE 13:17:09 10° ESE daylight
02 Sep - 15:06:41 10° SW 15:20:44 39° S 15:29:26 10° ESE daylight
02 Sep - 17:22:23 10° WSW 17:33:11 37° SSW 17:39:41 10° SE daylight
02 Sep - 19:39:06 10° WSW 19:43:53 16° SW 19:47:31 10° S daylight
03 Sep - 11:40:10 10° S 11:51:54 20° SE 12:01:33 10° ESE daylight
03 Sep - 13:50:31 10° SW 14:05:39 36° SSE 14:15:46 10° ESE daylight
03 Sep - 16:05:29 10° WSW 16:18:52 42° S 16:26:53 10° ESE daylight
03 Sep - 18:21:52 10° WSW 18:30:34 28° SSW 18:36:11 10° SSE daylight
